Location: Pedholt
(56.0260°N, 10.2097°E)
Time: 01:48:23
(UTC+00:00)

SR - Pass Details

Date: 28 July 2021
Orbit: 581 x 874 km, 66.7° (Epoch: 21 September)

Event Time Altitude Azimuth Distance (km) Brightness Sun altitude
Rises 15:41:11 0° 312° (NW) 3,161 ? 30.0°
Reaches altitude 10° 15:44:05 10° 298° (WNW) 2,178 ? 29.6°
Maximum altitude 15:47:46 22° 249° (WSW) 1,470 ? 29.1°
Drops below altitude 10° 15:51:15 10° 199° (SSW) 2,032 ? 28.6°
Sets 15:53:52 0° 184° (S) 2,892 ? 28.3°
